Orbital Elements at Epoch 2459043.5 (2020-Jul-13.0) TDB
Reference: JPL 23 (heliocentric ecliptic J2000)
Element | Value | Uncertainty (1-sigma) | Units |
e | .9991880623764725 | 6.9426e-07 | |
a | 362.8965185954068 | 0.31014 | au |
q | .294649336894755 | 1.5864e-07 | au |
i | 128.9372925471715 | 2.3582e-05 | deg |
node | 61.01054495400254 | 3.0318e-05 | deg |
peri | 37.27889886788983 | 2.289e-05 | deg |
M | .001328884049060741 | 1.7054e-06 | deg |
tp | 2459034.179113547509 (2020-Jul-03.67911355) | 1.4694e-05 | TDB |
period | 2525065.392476078 6913.25 | 3236.9 8.862 | d yr |
n | .0001425705651317743 | 1.8276e-07 | deg/d |
Q | 725.4983878539189 | 0.62002 | au |
|
| | Orbit Determination Parameters
Additional Information
|